sat.trackr.live / text

‹ back to catalog

BEIDOU-3 M4 (C22)

NORAD 43207 · 2018-018A

PAYLOAD ACTIVE UNKNOWN

§ Identity

Operator
Country
PRC
Launch date
2018-02-12
Launch site
XICLF
Launch vehicle
Mass (kg)
RCS (m²)

Purposes: nav

External: N2YO · Heavens-Above · Gunter

§ Orbital elements

Epoch: 2026-05-24T00:55:07.428288Z

Period
773.23 min
Inclination
56.6312°
Eccentricity
0.0007967
Mean motion
1.86231141 rev/d
Perigee alt
21,505.8 km
Apogee alt
21,550.3 km
Semi-major
27,906.2 km
B*
0.0000e+0
RAAN
63.9440°
Arg perigee
11.9545°
Mean anomaly
348.0589°
Rev number
5,629

§ Raw data

BEIDOU-3 M4 (C22)1 43207U 18018A   26144.03828042 -.00000065  00000+0  00000+0 0  99982 43207  56.6312  63.9440 0007967  11.9545 348.0589  1.86231141 56297

JSON: /api/v1/satellites/43207 · /tle

For live sub-satellite position, see the globe view (requires WebGL).

§ Visibility from observer

Set your observer location to see the next 7 days of passes ≥ 10°. The values pass through the URL so the page stays shareable.

No JS? Fill the form by hand. The geolocation button needs JavaScript.